Regional Weather Roundup
Issued by NWS

Home | Current Version | Previous Version | Graphics & Text | Print | Product List | Glossary On
Versions: 1 2 3 4 5 6 7 8 9 10 11 12 13 14 15 16 17 18 19 20 21 22 23 24 25 26 27 28 29 30 31 32 33 34 35 36 37 38 39 40 41 42 43 44 45 46 47 48 49 50
420
ASUS44 KJAN 262310
RWRMS

MISSISSIPPI HOURLY WEATHER ROUNDUP
NATIONAL WEATHER SERVICE JACKSON MS
500 PM CST WED NOV 26 2014

NOTE: "FAIR: INDICATES FEW OR NO CLOUDS BELOW 12,000 FEET WITH NO
SIGNIFICANT WEATHER AND/OR OBSTRUCTIONS TO VISIBILITY.

MSZ001>002-007>008-010>013-018>021-025>028-034>036-270000-
NORTHWEST MISSISSIPPI

CITY           SKY/WX    TMP DP  RH WIND       PRES   REMARKS
CLARKSDALE     FAIR      48  37  66 NW6       30.11R
CLEVELAND      FAIR      52  39  62 N8        30.09R
GREENWOOD      CLEAR     56  33  42 NW7       30.09R
GREENVILLE     PTCLDY    53  36  52 NW6       30.10R
GRENADA        FAIR      54  34  47 W9G18     30.08R
OLIVE BRANCH   PTCLDY    45  36  70 W14G20    30.08R
OXFORD         FAIR      50  32  50 NW15G30   30.09R
TUNICA         CLEAR     45  36  70 NW6       30.11R
$$

MSZ003>006-009-014>017-022>024-029>033-037>039-270000-
NORTHEAST MISSISSIPPI

CITY           SKY/WX    TMP DP  RH WIND       PRES   REMARKS
COLUMBUS AFB   CLOUDY    56  32  40 S2        30.03S
CORINTH        MOCLDY    46  32  57 SW5       30.02R
GOLDN TRIANGLE MOCLDY    55  34  44 SW5       30.03R
STARKVILLE     CLOUDY    55  34  44 CALM      30.04R
TUPELO         MOCLDY    55  33  43 W10       30.02R
$$

MSZ040-058-270000-
CENTRAL MISSISSIPPI

CITY           SKY/WX    TMP DP  RH WIND       PRES   REMARKS
JACKSON INTL   PTCLDY    64  34  32 SW15G25   30.08R
JACKSON HAWKNS CLEAR     63  35  35 W17G24    30.08S
MERIDIAN KEY   CLEAR     56  33  42 S10       30.08R
MERIDIAN NAS   CLEAR     59  32  36 S6        30.07S
RAYMOND        FAIR      63  57  82 SW10      30.08R
VICKSBURG      CLEAR     63  38  39 VRB6      30.10R
$$

MSZ059>079-270000-
SOUTH MISSISSIPPI

CITY           SKY/WX    TMP DP  RH WIND       PRES   REMARKS
BROOKHAVEN     FAIR      63  37  39 SW13G26   30.13R
HATTIESBURG    CLEAR     61  36  39 SW10      30.14R
MCCOMB         CLEAR     64  36  35 SW10G18   30.13R
NATCHEZ        CLEAR     63  37  39 SW10      30.14R
PINE BELT      CLEAR     61  36  39 SW8       30.13R
$$

MSZ080>082-270000-
COASTAL MISSISSIPPI

CITY           SKY/WX    TMP DP  RH WIND       PRES   REMARKS
BAY ST LOUIS   CLEAR     57  36  44 SW6       30.18R
BILOXI         CLEAR     55  44  68 SW10      30.18R
PASCAGOULA     CLEAR     53  42  66 VRB3      30.19R
GULFPORT       CLEAR     56  45  66 S5        30.18R
$$



USA.gov is the U.S. government's official web portal to all federal, state and local government web resources and services.